Location: Taipo
(41.0000°S, 175.9500°E)
Time: 02:04:04
(UTC+00:00)

BREEZE-M DEB (TANK) - Pass Details

Date: 18 April 2024
Orbit: 387 x 20084 km, 49.4° (Epoch: 22 May)

Event Time Altitude Azimuth Distance (km) Brightness Sun altitude
Exits shadow 16:43:46 39° 60° (ENE) 695 3.6 -24.5°
Drops below altitude 10° 16:46:21 10° 58° (ENE) 1,998 6.3 -24.1°
Sets 16:49:39 0° 57° (ENE) 3,710 7.8 -23.4°
